Location: Brantley
(31.5822°N, 86.2569°W)
Time: 22:44:34
(UTC+00:00)

A-11 Canister half - Pass Details

Date: 17 February 2026
Orbit: 1525 x 1683 km, 47.3° (Epoch: 10 March)

Event Time Altitude Azimuth Distance (km) Brightness Sun altitude
Rises 03:52:52 0° 308° (NW) 4,675 12.1 -55.0°
Reaches altitude 10° 03:56:01 10° 313° (NW) 3,695 11.4 -55.6°
Enters shadow 03:58:24 20° 319° (NW) 2,989 10.7 -56.0°
